Amsterdam, Netherlands

1:40 AM CEST on August 18, 2017 (GMT +0200)
Amsterdam

Weather History for 06240 - March, 2013

Change the Weather History Date:

Tuesday, March 19, 2013

  Actual Average Record
Temperature  
Mean Temperature 38 °F -  
Max Temperature 43 °F 52 °F - ()
Min Temperature 32 °F 39 °F - ()
Degree Days  
Heating Degree Days 28    
Moisture  
Dew Point 34 °F    
Average Humidity 85    
Maximum Humidity 100    
Minimum Humidity 69    
Precipitation  
Precipitation 0.00 in - - ()
Sea Level Pressure  
Sea Level Pressure 29.45 in    
Wind  
Wind Speed 8 mph ()    
Max Wind Speed 15 mph    
Max Gust Speed -    
Visibility 3.0 miles    
Events Fog , Rain    
T = Trace of Precipitation, MM = Missing Value Source: Averaged Metar Reports

Daily Weather History Graph

Daily Weather History Graph

Search for Another Location

Airport or City:

Trip Planner

Search our weather history database for the weather conditions in past years. The results will help you decide how hot, cold, wet, or windy it might be!

Date:

Astronomy

Mar. 19, 2013 Rise Set
Actual Time 6:45 AM CET 6:52 PM CET
Civil Twilight 6:11 AM CET 7:26 PM CET
Nautical Twilight 5:31 AM CET 8:06 PM CET
Astronomical Twilight 4:50 AM CET 8:48 PM CET
Moon 10:39 AM CET (3/19) 2:09 AM CET (3/19)
Length of Visible Light 13h 14m
Length of Day
12h 06m
Waxing Crescent, 48% of the Moon is Illuminated
Mar 19
Waxing Crescent
Mar 19
First Quarter
Mar 27
Full
Apr 3
Last Quarter
Apr 10
New

Hourly Weather History & Observations

Time (CET) Temp. Windchill Dew Point Humidity Pressure Visibility Wind Dir Wind Speed Gust Speed Precip Events Conditions
12:25 AM 37.4 °F 34.9 °F 33.8 °F 87% 29.33 in - SE 3.5 mph - N/A   Clear
12:55 AM 37.4 °F 32.1 °F 33.8 °F 87% 29.33 in - East 6.9 mph - N/A   Clear
1:00 AM 36 °F - 33 °F 85% 29.35 in 7 mi East 6.7 mph - -   Partly Cloudy
1:25 AM 35.6 °F 29.9 °F 33.8 °F 93% 29.33 in - East 6.9 mph - N/A   Clear
1:55 AM 35.6 °F 29.9 °F 32.0 °F 87% 29.33 in - East 6.9 mph - N/A   Clear
2:25 AM 37.4 °F 30.8 °F 32.0 °F 81% 29.36 in - East 9.2 mph - N/A   Clear
2:55 AM 37.4 °F 30.8 °F 32.0 °F 81% 29.36 in - East 9.2 mph - N/A   Clear
3:25 AM 37.4 °F 30.8 °F 32.0 °F 81% 29.36 in - East 9.2 mph - N/A   Clear
3:55 AM 35.6 °F 29.2 °F 32.0 °F 87% 29.36 in - East 8.1 mph - N/A   Clear
4:00 AM 36 °F - 32 °F 80% 29.38 in 6 mi East 6.7 mph - -  
4:25 AM 35.6 °F 29.2 °F 32.0 °F 87% 29.36 in - East 8.1 mph - N/A   Clear
4:55 AM 35.6 °F 28.6 °F 33.8 °F 93% 29.36 in 5.6 mi East 9.2 mph - N/A   Unknown
5:25 AM 33.8 °F 27.7 °F 32.0 °F 93% 29.39 in 4.3 mi East 6.9 mph - N/A   Partly Cloudy
5:55 AM 33.8 °F 28.6 °F 32.0 °F 93% 29.39 in 3.1 mi East 5.8 mph - N/A   Partly Cloudy
6:25 AM 33.8 °F 27.7 °F 32.0 °F 93% 29.39 in 2.8 mi East 6.9 mph - N/A   Partly Cloudy
6:55 AM 32.0 °F 25.6 °F 32.0 °F 100% 29.39 in 1.3 mi ENE 6.9 mph - N/A Fog Partly Cloudy
7:00 AM 33 °F - 32 °F 93% 29.42 in 1 mi East 6.7 mph - -   Mist
7:25 AM 33.8 °F 27.0 °F 32.0 °F 93% 29.42 in 1.2 mi ENE 8.1 mph - N/A   Partly Cloudy
7:55 AM 33.8 °F 27.0 °F 32.0 °F 93% 29.42 in 1.2 mi East 8.1 mph - N/A   Scattered Clouds
8:25 AM 35.6 °F 27.5 °F 32.0 °F 87% 29.42 in 1.2 mi East 11.5 mph - N/A   Scattered Clouds
8:55 AM 35.6 °F 28.0 °F 33.8 °F 93% 29.42 in 1.2 mi East 10.4 mph - N/A   Mostly Cloudy
9:25 AM 35.6 °F 28.6 °F 33.8 °F 93% 29.44 in 1.2 mi East 9.2 mph - N/A   Mostly Cloudy
9:55 AM 37.4 °F 30.3 °F 33.8 °F 87% 29.44 in 1.6 mi East 10.4 mph - N/A   Mostly Cloudy
10:00 AM 37 °F - 35 °F 87% 29.46 in 2 mi East 8.9 mph - -   Mist
10:25 AM 37.4 °F 30.3 °F 33.8 °F 87% 29.44 in - East 10.4 mph - N/A   Mostly Cloudy
10:55 AM 37.4 °F 30.3 °F 35.6 °F 93% 29.44 in 1.9 mi East 10.4 mph - N/A   Overcast
11:25 AM 39.2 °F 33.0 °F 35.6 °F 87% 29.47 in - East 9.2 mph - N/A   Mostly Cloudy
11:55 AM 39.2 °F 33.0 °F 35.6 °F 87% 29.47 in - ENE 9.2 mph - N/A   Mostly Cloudy
12:25 PM 39.2 °F 33.6 °F 35.6 °F 87% 29.47 in 1.9 mi East 8.1 mph - N/A Rain Light Rain
12:55 PM 41.0 °F 35.8 °F 37.4 °F 87% 29.47 in 1.9 mi East 8.1 mph - N/A   Mostly Cloudy
1:00 PM 41 °F - 36 °F 77% 29.50 in 2 mi East 6.7 mph - -   Mist
1:25 PM 41.0 °F 35.8 °F 37.4 °F 87% 29.47 in 2.2 mi ENE 8.1 mph - N/A   Mostly Cloudy
1:55 PM 42.8 °F 38.6 °F 37.4 °F 81% 29.47 in 2.5 mi ENE 6.9 mph - N/A   Scattered Clouds
2:25 PM 42.8 °F 38.0 °F 37.4 °F 81% 29.47 in 2.8 mi NE 8.1 mph - N/A   Mostly Cloudy
2:55 PM 41.0 °F 34.7 °F 35.6 °F 81% 29.47 in 2.5 mi NE 10.4 mph - N/A   Mostly Cloudy
3:25 PM 41.0 °F 34.3 °F 35.6 °F 81% 29.47 in 2.5 mi NE 11.5 mph - N/A   Mostly Cloudy
3:55 PM 41.0 °F 34.3 °F 37.4 °F 87% 29.50 in - ENE 11.5 mph - N/A   Mostly Cloudy
4:00 PM 41 °F - 36 °F 77% 29.51 in 3 mi ENE 11.2 mph - -   Mist
4:25 PM 41.0 °F 34.3 °F 35.6 °F 81% 29.50 in 3.1 mi ENE 11.5 mph - N/A   Mostly Cloudy
4:55 PM 41.0 °F 34.7 °F 35.6 °F 81% 29.50 in 3.1 mi ENE 10.4 mph - N/A   Mostly Cloudy
5:25 PM 41.0 °F 34.7 °F 35.6 °F 81% 29.50 in 3.7 mi ENE 10.4 mph - N/A   Mostly Cloudy
5:55 PM 41.0 °F 34.3 °F 35.6 °F 81% 29.50 in 3.7 mi ENE 11.5 mph - N/A   Mostly Cloudy
6:25 PM 39.2 °F 31.6 °F 33.8 °F 81% 29.50 in 3.1 mi ENE 12.7 mph - N/A   Overcast
6:55 PM 39.2 °F 31.6 °F 33.8 °F 81% 29.53 in 3.1 mi ENE 12.7 mph - N/A   Overcast
7:00 PM 39 °F - 33 °F 73% 29.54 in 3 mi ENE 11.2 mph - -   Mist
7:25 PM 39.2 °F 31.2 °F 32.0 °F 75% 29.53 in 3.1 mi ENE 13.8 mph - N/A   Overcast
7:55 PM 37.4 °F 28.5 °F 32.0 °F 81% 29.53 in 3.1 mi ENE 15.0 mph - N/A   Mostly Cloudy
8:25 PM 37.4 °F 28.9 °F 32.0 °F 81% 29.53 in 3.7 mi East 13.8 mph - N/A   Mostly Cloudy
8:55 PM 37.4 °F 29.8 °F 32.0 °F 81% 29.53 in 3.7 mi East 11.5 mph - N/A   Mostly Cloudy
9:25 PM 37.4 °F 29.3 °F 32.0 °F 81% 29.56 in 3.7 mi East 12.7 mph - N/A   Mostly Cloudy
9:55 PM 37.4 °F 29.8 °F 32.0 °F 81% 29.56 in 3.7 mi East 11.5 mph - N/A   Mostly Cloudy
10:00 PM 37 °F - 31 °F 69% 29.58 in 4 mi East 11.2 mph - -   Light Haze
10:25 PM 37.4 °F 30.3 °F 30.2 °F 75% 29.56 in 4.3 mi East 10.4 mph - N/A   Mostly Cloudy
10:55 PM 37.4 °F 30.8 °F 30.2 °F 75% 29.56 in 5.0 mi East 9.2 mph - N/A   Mostly Cloudy
11:25 PM 35.6 °F 27.5 °F 30.2 °F 81% 29.56 in 4.3 mi East 11.5 mph - N/A   Mostly Cloudy
11:55 PM 35.6 °F 27.5 °F 30.2 °F 81% 29.56 in 4.3 mi East 11.5 mph - N/A   Mostly Cloudy